[[{"header":{"parameterUnit":"m.s-1","parameterCategory":1,"la1":30.2991,"la2":30.254,"lo1":-89.0895,"lo2":-89.0444,"dy":0.0017,"dx":0.0017,"nx":28,"ny":28,"refTime":"2025-04-18T21:00:00:Z","depth":0,"parameterNumber":2,"parameterNumberName":"U-component_of_WINDS"},"data":[0,0,0,0,0,0,0,0,0,0,0,0,0,0,0,0,0,0,0,0,0,0,0,0,0,0,0,0,0,0,0,0,0,0,0,0,0,0,0,0,0,0,0,0,0,0,0,0,0,0,0,0,0,0,0,0,0,0,-5.905,-5.9051,0,-5.9127,-5.9128,-5.9129,-5.905,-5.9047,-5.9044,-5.9041,-5.9121,-5.9126,-5.913,0,0,0,0,0,0,0,0,0,0,0,0,0,-5.8836,-5.884,-5.905,-5.9051,-5.9052,-5.9127,-5.9128,-5.9129,-5.9051,-5.9047,-5.9043,-5.904,-5.9119,-5.9125,-5.9131,0,0,0,0,0,0,0,0,0,0,0,0,0,-5.8923,-5.8842,-5.905,-5.9022,-5.902,-5.9127,-5.9128,-5.9129,-5.9051,-5.9047,-5.9042,-5.9038,-5.9117,-5.9124,-5.9132,-5.927,0,0,-5.9155,-5.9158,0,0,0,0,0,0,0,0,-5.8918,-5.8931,-5.9025,-5.9024,-5.9022,-5.9074,-5.9082,-5.9177,-5.9053,-5.904,-5.9041,-5.9036,-5.9109,-5.9117,-5.9141,-5.9274,-5.9277,-5.9155,-5.916,-5.9163,-5.9165,0,0,0,0,0,0,0,-5.8912,-5.8927,-5.908,-5.9026,-5.9025,-5.9006,-5.9013,-5.9099,-5.9099,-5.904,-5.9035,-5.9045,-5.9107,-5.9135,-5.9143,-5.9278,-5.9155,-5.9162,-5.9166,-5.9169,-5.9529,-5.9534,0,0,0,0,0,0,-5.8909,-5.8922,-5.9078,-5.9083,-5.8957,-5.9013,-5.9021,-5.9062,-5.9098,-5.9099,-5.9049,-5.9041,-5.9124,-5.9134,-5.9145,-5.9309,-5.9163,-5.917,-5.9174,-5.9524,-5.953,-5.9536,0,0,0,0,0,0,-5.8904,-5.8923,-5.9075,-5.9001,-5.9019,-5.9022,-5.9068,-5.9066,-5.9093,-5.9104,-5.9104,-5.9076,-5.9121,-5.9135,-5.924,-5.9311,-5.9173,-5.918,-5.9518,-5.9526,-5.9533,-5.9638,0,0,0,0,0,0,-5.8899,-5.8922,-5.8974,-5.9003,-5.9023,-5.9168,-5.9073,-5.9071,-5.9106,-5.9097,-5.913,-5.9131,-5.9118,-5.9229,-5.9247,-5.9318,-5.9186,-5.9512,-5.9522,-5.9531,-5.9628,-5.9648,-5.9666,0,0,0,0,0,-5.8891,-5.9001,-5.8977,-5.8996,-5.9088,-5.9172,-5.9183,-5.9166,-5.9112,-5.9165,-5.9172,-5.913,-5.9301,-5.9241,-5.926,-5.9335,-5.9507,-5.9519,-5.953,-5.962,-5.9645,-5.9665,0,0,0,0,0,0,-5.8979,-5.9004,-5.8978,-5.91,-5.9135,-5.9158,-5.9223,-5.9192,-5.9243,-5.9232,-5.9208,-5.9217,-5.9328,-5.9343,-5.9275,-5.9471,-5.9395,-5.9411,-5.9457,-5.948,-5.9499,-5.9491,-5.9192,0,0,0,0,0,-5.9013,-5.9079,-5.9097,-5.9203,-5.9221,-5.922,-5.9256,-5.924,-5.9275,-5.9289,-5.9304,-5.934,-5.9401,-5.9442,-5.95,-5.9632,-5.9638,-5.9693,-5.9712,-5.9727,-5.974,-5.9811,-5.9835,-5.9574,-5.9573,-5.9573,0,0,-5.9083,-5.9105,-5.9147,-5.9221,-5.9246,-5.9315,-5.9233,-5.9309,-5.9359,-5.93,-5.9399,-5.9413,-5.9452,-5.9571,-5.9624,-5.9586,-5.9815,-5.9742,-5.9754,-5.9758,-5.9825,-5.985,-5.9872,-5.9581,-5.958,-5.9579,0,0,-5.9245,-5.9269,-5.9359,-5.9386,-5.9425,-5.9424,-5.9447,-5.9476,-5.9482,-5.9583,-5.954,-5.9601,-5.9708,-5.9737,-5.9766,-5.9943,-5.9906,-5.9963,-6.0059,-6.0128,-6.0149,-6.0167,-6.0229,-6.0251,-5.9976,-5.9977,-5.9977,0,-5.9326,-5.9428,-5.9409,-5.9489,-5.9522,-5.9474,-5.9565,-5.9593,-5.9649,-5.9674,-5.9632,-5.9765,-5.9788,-5.9913,-5.9957,-5.9982,-6.0007,-5.9957,-6.0147,-6.0165,-6.0182,-6.0241,-6.0264,-5.9983,-5.9982,-5.9982,-5.9981,0,-5.9526,-5.9597,-5.9666,-5.9721,-5.9764,-5.9849,-5.9844,-5.9889,-5.9871,-5.9875,-5.9978,-6.0004,-6.0066,-6.0096,-6.0078,-6.0219,-6.0194,-6.0151,-6.0073,-6.0214,-6.0268,-6.0291,-5.9992,-5.999,-5.9988,-5.9987,0,0,-5.9741,-5.9788,-5.9813,-5.9838,-5.9879,-5.9934,-6.0019,-6.008,-6.0118,-6.0161,-6.023,-6.0323,-6.0283,-6.0316,-6.0303,-6.0364,-6.0502,-6.0312,-6.0313,-6.0345,-6.0658,-6.0688,-6.0715,-6.0479,-6.0484,-6.0487,-6.0654,0,-5.9902,-6.0047,-6.0034,-6.0172,-6.0238,-6.0194,-6.0268,-6.0302,-6.0309,-6.0367,-6.0375,-6.044,-6.0383,-6.0403,-6.0462,-6.0472,-6.0564,-6.0461,-6.0543,-6.0546,-6.0531,-6.0744,-6.0776,-6.0932,-6.0675,-6.0679,-6.0682,0,-6.0108,-6.0157,-6.0302,-6.0334,-6.0362,-6.0428,-6.0483,-6.0539,-6.0578,-6.0579,-6.0618,-6.0594,-6.068,-6.0604,-6.0722,-6.0652,-6.0686,-6.0696,-6.0702,-6.0706,-6.062,-6.0751,-6.0981,-6.1004,-6.0715,-6.0713,-6.071,0,-6.0248,-6.0351,-6.045,-6.0474,-6.0515,-6.0562,-6.0582,-6.0616,-6.0654,-6.0704,-6.0728,-6.0788,-6.0819,-6.0866,-6.086,-6.0805,-6.098,-6.0903,-6.0982,-6.0983,-6.1018,-6.1015,-6.1254,-6.1045,-6.1045,-6.1044,-6.1044,0,-6.0427,-6.0517,-6.0514,-6.0575,-6.0674,-6.0661,-6.076,-6.0774,-6.0805,-6.0869,-6.0837,-6.0897,-6.0886,-6.0947,-6.0943,-6.1041,-6.1056,-6.1059,-6.1056,-6.106,-6.106,-6.1079,-6.1067,-6.105,-6.1049,-6.1048,-6.1047,0,-6.0598,-6.06,-6.0706,-6.0737,-6.0747,-6.0819,-6.0846,-6.0904,-6.0911,-6.0991,-6.101,-6.1019,-6.1089,-6.1089,-6.1169,-6.1166,-6.1285,-6.1272,-6.1272,-6.1268,-6.1346,-6.1338,-6.1604,-6.1637,-6.1409,-6.1412,-6.1413,0,-6.0711,-6.0779,-6.0818,-6.0858,-6.0881,-6.0947,-6.0986,-6.0976,-6.1018,-6.1069,-6.1121,-6.1189,-6.1241,-6.1356,-6.137,-6.1432,-6.1417,-6.1507,-6.1426,-6.1428,-6.1416,-6.1411,-6.1417,-6.1521,-6.1524,-6.1526,-6.1527,0,-6.091,-6.0908,-6.0965,-6.1025,-6.1072,-6.1118,-6.116,-6.1195,-6.1191,-6.124,-6.1312,-6.1353,-6.1436,-6.1503,-6.1563,-6.1583,-6.1555,-6.1553,-6.1574,-6.1577,-6.1574,-6.1575,-6.1312,-6.1546,-6.1544,-6.1543,-6.1542,-6.1541,-6.1053,-6.1112,-6.1149,-6.1215,-6.1246,-6.1287,-6.1343,-6.1357,-6.1416,-6.1482,-6.1474,-6.1554,-6.1593,-6.1671,-6.1697,-6.176,-6.1728,-6.176,-6.1767,-6.1774,-6.1782,-6.1567,-6.1771,-6.1771,-6.177,-6.177,-6.1769,0,-6.1249,-6.1272,-6.1332,-6.1393,-6.1445,-6.1416,-6.1462,-6.1507,-6.1577,-6.1616,-6.167,-6.1753,-6.1819,-6.184,-6.1904,-6.195,-6.1938,-6.1967,-6.1961,-6.1967,-6.1807,-6.1781,-6.1975,-6.1975,-6.1975,-6.1975,-6.1975,-6.1975,-6.1356,-6.1453,-6.1457,-6.157,-6.1592,-6.167,-6.1699,-6.1737,-6.1768,-6.1862,-6.1916,-6.193,-6.1962,-6.2029,-6.2088,-6.2093,-6.2117,-6.215,-6.2149,-6.1999,-6.1978,-6.1958,-6.1933,-6.2156,-6.2156,-6.2303,-6.2305,-6.2306]},{"header":{"parameterUnit":"m.s-1","parameterCategory":1,"la1":30.2991,"la2":30.254,"lo1":-89.0895,"lo2":-89.0444,"dy":0.0017,"dx":0.0017,"nx":28,"ny":28,"refTime":"2025-04-18T21:00:00:Z","depth":0,"parameterNumber":3,"parameterNumberName":"V-component_of_WINDS"},"data":[0,0,0,0,0,0,0,0,0,0,0,0,0,0,0,0,0,0,0,0,0,0,0,0,0,0,0,0,0,0,0,0,0,0,0,0,0,0,0,0,0,0,0,0,0,0,0,0,0,0,0,0,0,0,0,0,0,0,2.8721,2.8721,0,2.8754,2.8754,2.8755,2.8757,2.8756,2.8756,2.8756,2.8788,2.8789,2.8791,0,0,0,0,0,0,0,0,0,0,0,0,0,2.8661,2.8662,2.8721,2.8721,2.8722,2.8754,2.8754,2.8755,2.8757,2.8756,2.8756,2.8755,2.8788,2.8789,2.8791,0,0,0,0,0,0,0,0,0,0,0,0,0,2.869,2.8662,2.8721,2.8727,2.8727,2.8754,2.8754,2.8755,2.8757,2.8756,2.8756,2.8755,2.8787,2.8789,2.8791,2.8813,0,0,2.8797,2.8797,0,0,0,0,0,0,0,0,2.8688,2.8692,2.8725,2.8726,2.8727,2.8751,2.8745,2.8774,2.8757,2.8746,2.8756,2.8755,2.8776,2.8779,2.8786,2.8815,2.8816,2.8797,2.8798,2.8799,2.8799,0,0,0,0,0,0,0,2.8686,2.869,2.8734,2.8726,2.8727,2.8728,2.8731,2.8751,2.8764,2.8747,2.8747,2.8751,2.8777,2.8784,2.8787,2.8817,2.8797,2.8798,2.8799,2.88,2.8869,2.8869,0,0,0,0,0,0,2.8683,2.8689,2.8733,2.8735,2.8706,2.873,2.8733,2.8744,2.8763,2.8766,2.8751,2.8751,2.8782,2.8785,2.8788,2.8817,2.8799,2.88,2.8801,2.8868,2.8869,2.887,0,0,0,0,0,0,2.8681,2.8687,2.8731,2.8712,2.8718,2.8731,2.8743,2.8745,2.8752,2.8767,2.8769,2.8757,2.8781,2.8786,2.8808,2.8818,2.8801,2.8803,2.8867,2.8868,2.8869,2.8874,0,0,0,0,0,0,2.868,2.8686,2.8694,2.8712,2.8719,2.875,2.8743,2.8746,2.8756,2.8755,2.8773,2.8775,2.8781,2.8805,2.881,2.8821,2.8804,2.8866,2.8868,2.8869,2.8873,2.8876,2.8878,0,0,0,0,0,2.8678,2.8693,2.8695,2.87,2.8729,2.8751,2.8754,2.8761,2.8756,2.8765,2.8775,2.8774,2.8817,2.8807,2.8812,2.8824,2.8865,2.8867,2.8869,2.8872,2.8875,2.8877,0,0,0,0,0,0,2.8675,2.8696,2.8697,2.8719,2.8733,2.8751,2.8762,2.8764,2.8779,2.8778,2.8786,2.879,2.8812,2.882,2.881,2.8848,2.8841,2.8843,2.8842,2.8844,2.8846,2.8844,2.8806,0,0,0,0,0,2.8678,2.8693,2.871,2.8728,2.8736,2.8748,2.8757,2.8762,2.8776,2.8782,2.8793,2.8808,2.8825,2.8835,2.8851,2.8875,2.888,2.8886,2.8888,2.889,2.8892,2.8907,2.8911,2.8875,2.8875,2.8875,0,0,2.8682,2.8695,2.8704,2.8728,2.874,2.8756,2.8752,2.8769,2.8782,2.8785,2.8807,2.8816,2.8833,2.8857,2.8868,2.8864,2.8903,2.8892,2.8893,2.8894,2.8909,2.8913,2.8916,2.8876,2.8876,2.8876,0,0,2.8698,2.8709,2.8727,2.8739,2.8757,2.8766,2.877,2.8788,2.8795,2.8817,2.882,2.8836,2.8864,2.8876,2.8886,2.8912,2.8912,2.8917,2.8927,2.8942,2.8945,2.8948,2.8958,2.8961,2.8919,2.8919,2.8919,0,2.8701,2.8726,2.8735,2.8753,2.8764,2.8769,2.8787,2.8799,2.8821,2.8829,2.8825,2.8863,2.8874,2.8902,2.8909,2.8916,2.8922,2.8914,2.8944,2.8947,2.8949,2.8959,2.8963,2.892,2.8919,2.8919,2.8919,0,2.873,2.8747,2.8759,2.8782,2.8795,2.8813,2.8825,2.8837,2.8842,2.8851,2.8876,2.889,2.891,2.8918,2.8921,2.8947,2.8945,2.8942,2.8935,2.8953,2.8962,2.8966,2.892,2.892,2.892,2.892,0,0,2.8742,2.8773,2.8777,2.8788,2.881,2.8824,2.8844,2.8865,2.8875,2.8892,2.8909,2.8934,2.8933,2.8945,2.8951,2.8964,2.8985,2.8961,2.8961,2.8965,2.9016,2.9017,2.9022,2.8987,2.8987,2.8988,2.9015,0,2.8762,2.8796,2.8807,2.8836,2.8853,2.886,2.8877,2.8893,2.8903,2.892,2.8931,2.895,2.8947,2.8954,2.8968,2.898,2.8996,2.8978,2.9003,2.9004,2.8998,2.9026,2.9027,2.9052,2.9019,2.9019,2.902,0,2.8788,2.8806,2.8837,2.886,2.8868,2.8883,2.8904,2.892,2.8939,2.8946,2.8961,2.8966,2.8988,2.898,2.9011,2.8999,2.901,2.9018,2.9019,2.9021,2.9012,2.9029,2.906,2.9063,2.9025,2.9025,2.9024,0,2.8795,2.8828,2.8851,2.8861,2.8887,2.8898,2.891,2.8929,2.8941,2.896,2.8969,2.899,2.9002,2.9018,2.903,2.9023,2.906,2.9053,2.9067,2.9067,2.9073,2.9073,2.9106,2.9081,2.9081,2.9081,2.9081,0,2.8816,2.8835,2.8855,2.887,2.8892,2.8905,2.8927,2.8939,2.8956,2.8974,2.8981,2.8997,2.9012,2.903,2.904,2.9065,2.907,2.9076,2.9079,2.9076,2.9075,2.9082,2.9081,2.9082,2.9082,2.9082,2.9081,0,2.8827,2.8841,2.8868,2.8892,2.8898,2.8914,2.8935,2.895,2.8962,2.8984,2.899,2.9008,2.9031,2.9045,2.9073,2.908,2.9108,2.9109,2.9101,2.9102,2.9116,2.9114,2.9155,2.9161,2.9132,2.9132,2.9132,0,2.8838,2.8853,2.888,2.8893,2.8905,2.8925,2.8939,2.8953,2.8967,2.8992,2.9004,2.9028,2.9047,2.9084,2.91,2.9123,2.9125,2.9138,2.9128,2.9125,2.9126,2.9124,2.9127,2.9139,2.9139,2.9139,2.9139,0,2.8858,2.8865,2.8885,2.8908,2.8925,2.8944,2.8962,2.8972,2.899,2.9006,2.903,2.9045,2.9076,2.91,2.9124,2.9137,2.9141,2.9143,2.9147,2.9144,2.9139,2.9142,2.9106,2.9141,2.9141,2.9141,2.9141,2.9141,2.887,2.8884,2.8906,2.8929,2.8945,2.8963,2.8979,2.8994,2.9014,2.9041,2.9048,2.9074,2.9095,2.9129,2.9143,2.9163,2.9161,2.9168,2.9169,2.917,2.9171,2.9136,2.9168,2.9168,2.9168,2.9168,2.9168,0,2.889,2.8905,2.8926,2.8953,2.8971,2.8976,2.8997,2.9012,2.9035,2.9055,2.9075,2.9104,2.9128,2.9147,2.9172,2.9185,2.9188,2.9192,2.919,2.9194,2.9171,2.9165,2.9189,2.9189,2.9189,2.9189,2.9189,2.9189,2.8903,2.8928,2.8939,2.8973,2.8989,2.9014,2.9027,2.9044,2.906,2.9093,2.9113,2.9126,2.9146,2.9173,2.9196,2.9201,2.921,2.9213,2.9219,2.9197,2.9195,2.9193,2.9187,2.9215,2.9215,2.924,2.924,2.924]}]]